Home   Weather   Nagercoil   Past weeks

Flag for India Past Weather in Nagercoil, Tamil Nadu, India — Yesterday and Last 2 Weeks

86 °F

Passing clouds.

Feels Like: 97 °F
Forecast: 75 / 90 °F
Wind: 7 mph from West

Location: Thiruvananthapuram

Current Time: Oct 27, 2016 at 4:39:56 PM

Latest Report: Oct 27, 2016 at 4:30 PM

Visibility: 4 mi

Pressure: 29.77 "Hg

Humidity: 75%

Dew Point: 77 °F

Location of NagercoilLocation

Past Weather in Nagercoil — Graph


Nagercoil Temperature Yesterday

Maximum temperature yesterday: 86 °F (at 9:30 AM)
Minimum temperature yesterday: 79 °F (at 4:00 AM)
Average temperature yesterday: 83 °F

High & Low Weather Summary for the Past Weeks

High90 °F (Oct 13, 11:30 AM)94% (Oct 13, 8:30 PM)29.92 "Hg (Oct 13, 8:30 PM)
Low77 °F (Oct 14, 2:00 AM)62% (Oct 14, 9:30 AM)29.68 "Hg (Oct 18, 3:30 PM)
Average83 °F81%29.80 "Hg
* Reported Oct 12 3:30 PM — Oct 27 3:30 PM, Nagercoil, Weather by CustomWeather, © 2016

Note: Actual official high and low records may vary slightly from our data, if they occured in-between our weather recording intervals... More about our weather records


Nagercoil Weather History for the Previous 24 Hours

Scroll right to see more
Time TempWeatherWind HumidityBarometerVisibility
3:30 PM
Thu, Oct 27
88 °FPassing clouds.8 mph66%29.77 "Hg4 mi
3:00 PM88 °FPassing clouds.9 mph66%29.77 "Hg4 mi
2:30 PM88 °FPassing clouds.9 mph66%29.77 "Hg4 mi
2:00 PM88 °FPassing clouds.8 mph70%29.80 "Hg4 mi
1:30 PM88 °FScattered clouds.9 mph66%29.80 "Hg4 mi
1:00 PM86 °FPassing clouds.9 mph70%29.80 "Hg4 mi
12:30 PM86 °FPassing clouds.9 mph70%29.83 "Hg4 mi
12:00 PM86 °FPassing clouds.10 mph70%29.86 "Hg4 mi
11:30 AM86 °FPassing clouds.9 mph70%29.86 "Hg4 mi
11:00 AM86 °FScattered clouds.9 mph70%29.89 "Hg4 mi
10:30 AM86 °FScattered clouds.9 mph66%29.89 "Hg3 mi
10:00 AM86 °FScattered clouds.8 mph70%29.89 "Hg3 mi
9:30 AM86 °FScattered clouds.8 mph70%29.89 "Hg2 mi
9:00 AM84 °FHaze.7 mph74%29.89 "Hg2 mi
8:30 AM84 °FHaze.3 mph74%29.89 "Hg2 mi
8:00 AM82 °FHaze.3 mph79%29.89 "Hg2 mi
7:30 AM81 °FHaze.No wind84%29.86 "Hg2 mi
7:00 AM79 °FHaze.No wind89%29.86 "Hg2 mi
6:30 AM79 °FHaze.No wind89%29.86 "Hg2 mi
6:00 AM79 °FHaze.No wind89%29.83 "Hg2 mi
5:30 AM79 °FHaze.No wind89%29.83 "Hg2 mi
5:00 AM79 °FHaze.No wind89%29.80 "Hg2 mi
4:30 AM79 °FPassing clouds.3 mph89%29.80 "Hg2 mi
4:00 AM79 °FPassing clouds.No wind89%29.80 "Hg2 mi
3:30 AM79 °FPassing clouds.No wind84%29.80 "Hg2 mi
3:00 AM79 °FPassing clouds.No wind89%29.80 "Hg2 mi
2:30 AM79 °FPassing clouds.No wind89%29.80 "Hg2 mi
2:00 AM81 °FPassing clouds.No wind84%29.80 "Hg2 mi
1:30 AM81 °FPassing clouds.No wind84%29.80 "Hg2 mi
1:00 AM81 °FPassing clouds.No wind84%29.83 "Hg2 mi
12:30 AM81 °FPassing clouds.No wind79%29.83 "Hg2 mi
12:00 AM81 °FPassing clouds.No wind79%29.83 "Hg2 mi
11:30 PM
Wed, Oct 26
81 °FPassing clouds.No wind79%29.83 "Hg2 mi
11:00 PM81 °FPassing clouds.No wind84%29.86 "Hg2 mi
10:30 PM82 °FPassing clouds.No wind79%29.86 "Hg2 mi
10:00 PM82 °FPassing clouds.No wind79%29.86 "Hg2 mi
9:30 PM82 °FPassing clouds.3 mph79%29.86 "Hg2 mi
9:00 PM82 °FPassing clouds.3 mph79%29.86 "Hg2 mi
8:30 PM82 °FPassing clouds.3 mph79%29.83 "Hg2 mi
8:00 PM84 °FPartly cloudy.3 mph74%29.83 "Hg2 mi
7:30 PM84 °FPartly cloudy.3 mph74%29.80 "Hg2 mi
7:00 PM84 °FPartly cloudy.3 mph74%29.80 "Hg2 mi
6:30 PM84 °FBroken clouds.5 mph74%29.80 "Hg2 mi
6:00 PM84 °FBroken clouds.5 mph74%29.77 "Hg2 mi
5:30 PM84 °FThunderstorms. Broken clouds.5 mph74%29.77 "Hg2 mi
5:00 PM86 °FThunderstorms. Broken clouds.7 mph70%29.74 "Hg3 mi
4:30 PM86 °FBroken clouds.10 mph70%29.74 "Hg4 mi
4:00 PM86 °FPassing clouds.10 mph70%29.71 "Hg4 mi
Weather by CustomWeather, © 2016

See weather overviewHow to use our weather pages